Date String (YYYY-MM-DD hh:mm:ss) UTC,Instrument flags,absolute air pressure of the measurement (hPa),sample flow rate (lpm),inlet stack bypass flow (lpm),air temperature of the measurement (°C),ambient temperature measured by the external sensor (°C),aerosol sample conditioner tube jacket temperature (°C),OPC LED temperature (°C),internal box temperature (°C),relative humidity of the measurement (%),span deviation,mass concentration of particles derived from Lorenz-Mie calculation of OPC scattering (μg/m³),mass concentration of particles derived from Lorenz-Mie calculation of OPC scattering (μg/m³),mass concentration of particles derived from Lorenz-Mie calculation of OPC scattering (μg/m³)
DateTimeUTC,F1_M11,P_M11,Q1_M11,Q2_M11,T1_M11,T2_M11,T3_M11,T4_M11,T5_M11,U1_M11,ZSPAN_M11,X0_M11,X2_M11,X1_M11
2023-08-09 11:00:00,SystemResetWarning,0830.3,5.00,000.00,029.6,028.2,000.0,038.3,031.2,23.8,0000.0,0008.83,0004.98,0004.52
2023-08-09 11:01:00,SystemResetWarning,0830.4,5.00,000.00,029.6,028.3,000.0,038.3,031.2,23.7,0000.0,0008.99,0004.98,0004.52
2023-08-09 11:02:00,SystemResetWarning,0830.4,4.99,000.00,029.6,028.3,000.0,038.3,031.2,23.8,0000.0,0008.97,0004.98,0004.52
2023-08-09 11:03:00,SystemResetWarning,0830.4,4.99,000.00,029.7,028.3,000.0,038.3,031.2,23.8,0000.0,0008.46,0004.94,0004.51
2023-08-09 11:04:00,SystemResetWarning,0830.4,5.00,000.00,029.7,028.4,000.0,038.3,031.3,24.0,0000.0,0008.44,0004.94,0004.51
2023-08-09 11:05:00,SystemResetWarning,0830.4,5.00,000.00,029.7,028.4,000.0,038.3,031.3,24.0,0000.0,0008.53,0004.95,0004.51
2023-08-09 11:06:00,SystemResetWarning,0830.4,5.00,000.00,029.7,028.4,000.0,038.3,031.3,24.0,0000.0,0008.48,0004.96,0004.50
2023-08-09 11:07:00,SystemResetWarning,0830.4,5.00,000.00,029.7,028.5,000.0,038.3,031.3,23.9,0000.0,0008.52,0004.97,0004.49
2023-08-09 11:08:00,SystemResetWarning,0830.4,5.00,000.00,029.7,028.5,000.0,038.3,031.3,23.8,0000.0,0008.69,0004.99,0004.48
2023-08-09 11:09:00,SystemResetWarning,0830.4,5.00,000.00,029.8,028.5,000.0,038.4,031.4,23.7,0000.0,0008.97,0005.00,0004.49
2023-08-09 11:10:00,SystemResetWarning,0830.5,5.00,000.00,029.8,028.5,000.0,038.4,031.4,23.6,0000.0,0008.95,0004.99,0004.49
2023-08-09 11:11:00,SystemResetWarning,0830.4,5.00,000.00,029.8,028.6,000.0,038.4,031.4,23.9,0000.0,0008.96,0005.03,0004.50
2023-08-09 11:12:00,SystemResetWarning,0830.4,5.01,000.00,029.8,028.6,000.0,038.4,031.4,24.5,0000.0,0009.31,0005.06,0004.51
2023-08-09 11:13:00,SystemResetWarning,0830.6,5.00,000.00,029.8,028.6,000.0,038.4,031.4,24.7,0000.0,0010.01,0005.08,0004.52
2023-08-09 11:14:00,SystemResetWarning,0830.6,5.00,000.00,029.9,028.6,000.0,038.4,031.4,24.8,0000.0,0010.20,0005.13,0004.54
2023-08-09 11:15:00,SystemResetWarning,0830.4,5.00,000.00,029.9,028.6,000.0,038.4,031.5,24.9,0000.0,0010.10,0005.15,0004.54
2023-08-09 11:16:00,SystemResetWarning,0830.4,5.00,000.00,029.9,028.7,000.0,038.5,031.5,24.9,0000.0,0010.14,0005.15,0004.55
2023-08-09 11:17:00,SystemResetWarning,0830.6,5.00,000.00,029.9,028.7,000.0,038.5,031.5,24.8,0000.0,0010.46,0005.17,0004.57
2023-08-09 11:18:00,SystemResetWarning,0830.6,5.00,000.00,029.9,028.7,000.0,038.5,031.5,24.7,0000.0,0010.69,0005.17,0004.58
2023-08-09 11:19:00,SystemResetWarning,0830.4,5.00,000.00,029.9,028.7,000.0,038.5,031.5,24.6,0000.0,0010.56,0005.17,0004.59
2023-08-09 11:20:00,SystemResetWarning,0830.5,5.00,000.00,030.0,028.7,000.0,038.5,031.5,24.5,0000.0,0010.31,0005.17,0004.59
2023-08-09 11:21:00,SystemResetWarning,0830.6,4.99,000.00,030.0,028.8,000.0,038.5,031.6,24.3,0000.0,0010.27,0005.18,0004.58
2023-08-09 11:22:00,SystemResetWarning,0830.5,5.00,000.00,030.0,028.8,000.0,038.6,031.6,24.4,0000.0,0010.17,0005.16,0004.57
2023-08-09 11:23:00,SystemResetWarning,0830.6,5.00,000.00,030.0,028.8,000.0,038.6,031.6,24.4,0000.0,0009.83,0005.10,0004.55
2023-08-09 11:24:00,SystemResetWarning,0830.5,5.00,000.00,030.0,028.8,000.0,038.6,031.6,24.3,0000.0,0008.89,0005.06,0004.53
2023-08-09 11:25:00,SystemResetWarning,0830.6,5.00,000.00,030.0,028.8,000.0,038.6,031.6,24.0,0000.0,0008.65,0005.01,0004.51
2023-08-09 11:26:00,SystemResetWarning,0830.5,5.00,000.00,030.0,028.8,000.0,038.6,031.6,24.0,0000.0,0008.62,0005.00,0004.49
2023-08-09 11:27:00,SystemResetWarning,0830.5,5.00,000.00,030.0,028.8,000.0,038.6,031.6,24.3,0000.0,0008.49,0004.99,0004.48
2023-08-09 11:28:00,SystemResetWarning,0830.5,5.00,000.00,030.1,028.8,000.0,038.6,031.6,24.8,0000.0,0008.80,0004.98,0004.47
2023-08-09 11:29:00,SystemResetWarning,0830.6,5.00,000.00,030.1,028.8,000.0,038.7,031.7,25.0,0000.0,0008.49,0005.01,0004.47
2023-08-09 11:30:00,SystemResetWarning,0830.6,5.00,000.00,030.1,028.9,000.0,038.7,031.7,25.0,0000.0,0008.57,0005.03,0004.45
2023-08-09 11:31:00,SystemResetWarning,0830.6,4.99,000.00,030.1,028.4,000.0,038.7,031.6,25.0,0000.0,0008.89,0005.02,0004.44
2023-08-09 11:32:00,SystemResetWarning,0830.6,4.99,000.00,030.0,026.3,000.0,038.5,031.3,25.1,0000.0,0008.92,0005.02,0004.43
2023-08-09 11:33:00,SystemResetWarning,0830.6,5.01,000.00,030.0,025.2,000.0,038.4,031.1,24.9,0000.0,0008.91,0005.02,0004.44
2023-08-09 11:34:00,SystemResetWarning,0830.6,5.02,000.00,029.8,025.3,000.0,038.4,030.8,25.3,0000.0,0008.91,0005.01,0004.43
2023-08-09 11:35:00,SystemResetWarning,0830.6,4.99,000.00,029.7,025.6,000.0,038.4,030.8,25.6,0000.0,0009.12,0005.05,0004.43
2023-08-09 11:36:00,SystemResetWarning,0830.6,5.00,000.00,029.6,026.1,000.0,038.4,030.9,25.9,0000.0,0009.17,0005.05,0004.42
2023-08-09 11:37:00,SystemResetWarning,0830.6,5.00,000.00,029.6,026.5,000.0,038.4,031.0,25.9,0000.0,0009.09,0005.02,0004.40
2023-08-09 11:38:00,SystemResetWarning,0830.6,4.99,000.00,029.6,026.8,000.0,038.4,031.0,26.1,0000.0,0009.03,0004.99,0004.41
2023-08-09 11:39:00,SystemResetWarning,0830.6,5.00,000.00,029.6,027.1,000.0,038.4,031.1,26.1,0000.0,0008.54,0004.97,0004.39
2023-08-09 11:40:00,SystemResetWarning,0830.7,5.01,000.00,029.6,027.4,000.0,038.3,031.1,26.3,0000.0,0008.54,0004.94,0004.39
2023-08-09 11:41:00,SystemResetWarning,0830.6,5.00,000.00,029.6,027.6,000.0,038.3,031.1,26.5,0000.0,0008.46,0004.90,0004.39
2023-08-09 11:42:00,SystemResetWarning,0830.7,5.01,000.00,029.6,027.7,000.0,038.3,031.1,26.8,0000.0,0008.13,0004.89,0004.38
2023-08-09 11:43:00,SystemResetWarning,0830.6,5.00,000.00,029.6,027.9,000.0,038.3,031.1,26.9,0000.0,0008.35,0004.89,0004.38
2023-08-09 11:44:00,SystemResetWarning,0830.7,5.00,000.00,029.6,028.0,000.0,038.3,031.2,27.0,0000.0,0008.76,0004.87,0004.37
2023-08-09 11:45:00,SystemResetWarning,0830.6,5.00,000.00,029.6,028.1,000.0,038.3,031.2,26.9,0000.0,0008.79,0004.88,0004.37
2023-08-09 11:46:00,SystemResetWarning,0830.7,5.00,000.00,029.6,028.2,000.0,038.3,031.2,27.0,0000.0,0008.78,0004.88,0004.37
2023-08-09 11:47:00,SystemResetWarning,0830.6,5.00,000.00,029.7,028.2,000.0,038.3,031.2,27.0,0000.0,0008.62,0004.84,0004.36
2023-08-09 11:48:00,SystemResetWarning,0830.6,5.00,000.00,029.7,028.3,000.0,038.3,031.3,26.9,0000.0,0008.60,0004.84,0004.38
2023-08-09 11:49:00,SystemResetWarning,0830.7,5.00,000.00,029.7,028.3,000.0,038.3,031.3,26.7,0000.0,0008.60,0004.85,0004.38
2023-08-09 11:50:00,SystemResetWarning,0830.7,5.00,000.00,029.7,028.4,000.0,038.3,031.3,26.2,0000.0,0008.57,0004.85,0004.38
2023-08-09 11:51:00,SystemResetWarning,0830.7,5.00,000.00,029.7,028.4,000.0,038.4,031.3,26.2,0000.0,0008.65,0004.82,0004.37
2023-08-09 11:52:00,SystemResetWarning,0830.7,5.00,000.00,029.7,028.5,000.0,038.4,031.3,26.1,0000.0,0009.01,0004.83,0004.37
2023-08-09 11:53:00,SystemResetWarning,0830.7,5.01,000.00,029.7,028.5,000.0,038.4,031.3,25.8,0000.0,0009.12,0004.85,0004.38
2023-08-09 11:54:00,SystemResetWarning,0830.8,5.00,000.00,029.8,028.5,000.0,038.4,031.4,25.6,0000.0,0009.01,0004.84,0004.37
2023-08-09 11:55:00,SystemResetWarning,0830.8,5.00,000.00,029.8,028.5,000.0,038.4,031.4,25.6,0000.0,0008.86,0004.88,0004.37
2023-08-09 11:56:00,SystemResetWarning,0830.8,5.00,000.00,029.8,028.6,000.0,038.4,031.4,25.7,0000.0,0009.39,0004.89,0004.37
2023-08-09 11:57:00,SystemResetWarning,0830.8,5.00,000.00,029.8,028.6,000.0,038.4,031.4,25.8,0000.0,0009.98,0004.90,0004.38
2023-08-09 11:58:00,SystemResetWarning,0830.8,5.00,000.00,029.8,028.6,000.0,038.4,031.4,25.9,0000.0,0010.16,0004.93,0004.39
2023-08-09 11:59:00,SystemResetWarning,0830.9,5.00,000.00,029.8,028.6,000.0,038.4,031.4,25.7,0000.0,0011.07,0004.96,0004.39
